CW1490 Weather Reports


Display with metric or nautical units.
time (UTC)temp
F
wind
direction
speed
MPH
gust
MPH
rain 1hr
in
rain 24hr
in
rain mn
in
humidity
%
barometer
mb
20180527193117 56 4 1.0 2.0 0.01 0.06 0.06 91 1020.8
20180527191613 56 39 1.0 4.0 0.01 0.06 0.06 91 1020.8
20180527190113 56 359 0.0 4.0 0.01 0.06 0.06 91 1021.0
20180527184614 55 33 2.0 4.0 0.02 0.06 0.06 91 1021.2
20180527183109 55 359 2.0 4.0 0.01 0.05 0.05 91 1021.4
20180527181606 55 48 2.0 5.0 0.01 0.05 0.05 92 1021.6
20180527180105 55 52 2.0 3.0 0.02 0.05 0.05 92 1021.6
20180527174608 55 4 1.0 4.0 0.04 0.04 0.04 92 1021.6
20180527173103 55 64 0.0 0.0 0.04 0.04 0.04 91 1021.5
20180527171601 55 64 1.0 6.0 0.04 0.04 0.04 89 1021.5
20180527170101 55 43 0.0 5.0 0.03 0.03 0.03 88 1021.5
20180527164558 56 47 3.0 8.0 0.00 0.00 0.00 82 1021.6
20180527163056 57 14 8.0 12.0 0.00 0.00 0.00 83 1021.6
20180527161557 57 50 4.0 12.0 0.00 0.00 0.00 83 1021.4
20180527160051 57 48 2.0 7.0 0.00 0.00 0.00 83 1021.3
20180527154649 57 54 4.0 11.0 0.00 0.00 0.00 83 1021.1
20180527153046 57 15 0.0 7.0 0.00 0.00 0.00 83 1021.0
20180527151545 57 108 4.0 10.0 0.00 0.00 0.00 83 1020.9
20180527150045 58 14 2.0 5.0 0.00 0.00 0.00 85 1020.8
20180527144545 58 40 4.0 6.0 0.00 0.00 0.00 84 1020.8
20180527143038 58 139 0.0 3.0 0.00 0.00 0.00 84 1020.6
20180527141542 58 52 3.0 10.0 0.00 0.00 0.00 83 1020.5
20180527140042 58 219 0.0 4.0 0.00 0.00 0.00 83 1020.5
20180527134535 58 46 3.0 10.0 0.00 0.00 0.00 83 1020.7
20180527133034 58 26 3.0 13.0 0.00 0.00 0.00 82 1020.6
20180527131533 59 18 2.0 8.0 0.00 0.00 0.00 83 1020.5
20180527130030 59 104 1.0 8.0 0.00 0.00 0.00 83 1020.4
20180527124526 59 76 2.0 6.0 0.00 0.00 0.00 83 1020.2
20180527123026 59 38 0.0 2.0 0.00 0.00 0.00 83 1020.0
20180527121524 59 35 0.0 4.0 0.00 0.00 0.00 83 1019.9
20180527120025 59 41 2.0 5.0 0.00 0.00 0.00 83 1019.6
20180527114520 59 51 2.0 6.0 0.00 0.00 0.00 82 1019.4
20180527113016 59 8 1.0 5.0 0.00 0.00 0.00 82 1019.0
20180527111516 59 344 1.0 5.0 0.00 0.00 0.00 81 1019.2
20180527110015 59 166 1.0 5.0 0.00 0.00 0.00 80 1018.9
20180527104511 59 54 0.0 3.0 0.00 0.00 0.00 80 1018.8
20180527103012 59 54 0.0 3.0 0.00 0.00 0.00 80 1018.7
20180527101506 59 23 1.0 7.0 0.00 0.00 0.00 78 1018.4
20180527100006 59 34 4.0 10.0 0.00 0.00 0.00 78 1018.3
20180527094503 59 43 0.0 4.0 0.00 0.00 0.00 79 1018.1
20180527093001 59 299 3.0 7.0 0.00 0.00 0.00 78 1017.8
20180527091503 59 354 4.0 11.0 0.00 0.00 0.00 79 1017.8
20180527085957 60 341 8.0 14.0 0.00 0.00 0.00 81 1017.5
20180527084452 61 66 8.0 17.0 0.00 0.00 0.00 82 1017.1
20180527083048 62 31 9.0 16.0 0.00 0.00 0.00 85 1016.7
20180527081445 66 45 8.0 16.0 0.00 0.00 0.00 87 1016.0
20180527075943 67 119 0.0 4.0 0.00 0.00 0.00 87 1015.7
20180527074443 68 104 1.0 8.0 0.00 0.00 0.00 85 1015.3
20180527072941 68 23 5.0 14.0 0.00 0.00 0.00 84 1014.9
20180527071440 68 24 2.0 7.0 0.00 0.00 0.00 83 1015.3
20180527065940 68 35 0.0 2.0 0.00 0.00 0.00 86 1015.1
20180527064434 68 359 3.0 6.0 0.00 0.00 0.00 84 1014.9
20180527062936 68 20 0.0 3.0 0.00 0.00 0.00 86 1014.8
20180527061434 68 11 0.0 2.0 0.00 0.00 0.00 86 1014.4
20180527055931 68 29 3.0 6.0 0.00 0.00 0.00 86 1014.3
20180527054427 67 38 4.0 9.0 0.00 0.00 0.00 88 1014.1
20180527052929 67 25 2.0 3.0 0.00 0.00 0.00 89 1013.9
20180527051428 67 30 4.0 6.0 0.00 0.00 0.00 88 1013.7
20180527045924 68 10 2.0 6.0 0.00 0.00 0.00 87 1013.9
20180527044424 68 19 1.0 7.0 0.00 0.00 0.00 86 1014.0
20180527042922 68 354 2.0 5.0 0.00 0.00 0.00 85 1013.9
20180527041423 68 4 1.0 3.0 0.00 0.00 0.00 86 1013.9
20180527035921 68 33 0.0 2.0 0.00 0.00 0.00 87 1013.7
20180527034416 68 47 1.0 5.0 0.00 0.00 0.00 87 1013.6
20180527032916 68 4 0.0 3.0 0.00 0.00 0.00 86 1013.7
20180527031418 68 4 0.0 0.0 0.00 0.00 0.00 84 1013.5
20180527025916 68 8 0.0 3.0 0.00 0.00 0.00 83 1013.4
20180527024414 69 359 0.0 3.0 0.00 0.00 0.00 83 1013.2
20180527022911 69 8 0.0 3.0 0.00 0.00 0.00 83 1012.9
20180527021610 70 8 1.0 3.0 0.00 0.00 0.00 81 1012.8
20180527015908 70 28 0.0 5.0 0.00 0.00 0.00 80 1012.7
20180527014409 70 23 2.0 6.0 0.00 0.00 0.00 80 1012.4
20180527012908 70 54 0.0 2.0 0.00 0.00 0.00 79 1012.1
20180527011405 71 4 2.0 5.0 0.00 0.00 0.00 79 1011.8
20180527005859 71 28 1.0 6.0 0.00 0.00 0.00 77 1011.4
20180527004401 72 16 4.0 8.0 0.00 0.00 0.00 77 1010.9
20180527002854 72 35 4.0 10.0 0.00 0.00 0.00 76 1010.6
20180527001354 72 339 4.0 9.0 0.00 0.00 0.00 76 1010.3
20180526235851 73 43 6.0 11.0 0.00 0.00 0.00 75 1010.0
20180526234348 73 60 5.0 14.0 0.00 0.00 0.00 75 1009.7
20180526232844 74 334 4.0 10.0 0.00 0.00 0.00 75 1009.3
20180526231342 74 33 5.0 12.0 0.00 0.00 0.00 74 1008.9
20180526225840 75 21 8.0 17.0 0.00 0.00 0.00 72 1008.6
20180526224336 76 25 7.0 17.0 0.00 0.00 0.00 71 1008.5
20180526222837 76 4 10.0 17.0 0.00 0.00 0.00 69 1008.1
20180526221330 78 4 11.0 20.0 0.00 0.00 0.00 66 1007.8
20180526215831 80 21 9.0 18.0 0.00 0.00 0.00 64 1007.3
20180526214329 81 8 1.0 3.0 0.00 0.00 0.00 70 1007.0
20180526212830 81 13 2.0 3.0 0.00 0.00 0.00 71 1006.9
20180526211328 81 354 0.0 0.0 0.00 0.00 0.00 66 1007.0
20180526205824 82 338 0.0 0.0 0.00 0.00 0.00 63 1006.8
20180526204325 82 301 1.0 3.0 0.00 0.00 0.00 64 1006.6
20180526202825 83 298 0.0 4.0 0.00 0.00 0.00 64 1006.6
20180526201321 83 260 0.0 2.0 0.00 0.00 0.00 66 1006.3
20180526195821 85 251 0.0 2.0 0.00 0.00 0.00 52 1006.1
20180526194322 85 249 0.0 5.0 0.00 0.00 0.00 52 1006.0